Overview Statistics Trail Chart Weather Telemetry Raw packets
 

This is the latest recevied weather packets stored in our database for station/object K1BES. If no packets are shown the sender has not sent any weather packets the latest 10 day(s).

<< 73 74 75 76 77 78 79 >>
Time Temp. Humidity Pressure Rain* Wind** Luminosity Snow
1788125517 25° C 94% 1017.8 hPa 0 mm - 101 W/m² -
1788125214 25° C 94% 1017.7 hPa 0 mm - 103 W/m² -
1788124909 25° C 94% 1017.8 hPa 0 mm - 107 W/m² -
1788124609 25° C 94% 1017.9 hPa 0 mm - 111 W/m² -
1788124308 25° C 94% 1018 hPa 0 mm - 114 W/m² -
1788124004 25° C 94% 1018 hPa 0 mm - 115 W/m² -
1788123703 25° C 94% 1018.1 hPa 0 mm - 118 W/m² -
1788123400 25° C 94% 1018.1 hPa 0 mm - 123 W/m² -
1788123096 25° C 94% 1018.3 hPa 0 mm - 136 W/m² -
1788122795 25° C 93% 1018.2 hPa 0 mm - 157 W/m² -
1788122494 25° C 93% 1018.2 hPa 0 mm - 190 W/m² -
1788122191 25° C 93% 1018.4 hPa 0 mm - 244 W/m² -
1788121891 25° C 92% 1018.5 hPa 0 mm - 200 W/m² -
1788121591 25.56° C 92% 1018.7 hPa 0 mm - 104 W/m² -
1788121286 26.67° C 93% 1018.4 hPa 0 mm - 129 W/m² -
1788120985 27.22° C 96% 1018.5 hPa 0 mm - 319 W/m² -
1788120681 26.67° C 96% 1018 hPa 1.78 mm - 451 W/m² -
1788120376 26.11° C 95% 1018 hPa 1.78 mm - 337 W/m² -
1788120075 26.11° C 95% 1017.8 hPa 0 mm - 228 W/m² -
1788119771 25.56° C 95% 1018 hPa 1.27 mm - 173 W/m² -
1788119469 25.56° C 95% 1017.9 hPa 4.32 mm - 154 W/m² -
1788119169 25° C 94% 1018.2 hPa 4.83 mm - 128 W/m² -
1788118869 25° C 94% 1018.4 hPa 12.7 mm - 107 W/m² -
1788118569 24.44° C 93% 1018.4 hPa 33.53 mm - 94 W/m² -
1788118264 24.44° C 92% 1018.3 hPa 47.5 mm - 87 W/m² -

* Rain latest hour (hover to see other rain measurements)
** Current wind speed in m/s (hover to see current wind gust speed)